Date,TemperatureHighF,TemperatureAvgF,TemperatureLowF,DewpointHighF,DewpointAvgF,DewpointLowF,HumidityHigh,HumidityAvg,HumidityLow,PressureMaxIn,PressureMinIn,WindSpeedMaxMPH,WindSpeedAvgMPH,GustSpeedMaxMPH,PrecipitationSumIn
2013-2-8,51.3,36.6,27.1,22.8,16.7,13.1,60,45,27,30.32,30.14,15,3,15,0.24
2013-2-9,27.3,27.3,27.3,15.3,15.3,15.3,60,60,60,30.32,30.32,0,0,0,0.00
2013-2-11,35.2,34.4,34.0,19.7,18.4,17.3,55,52,49,29.70,29.64,34,16,34,0.04
2013-2-12,38.8,33.4,29.7,17.6,16.0,13.6,57,49,39,30.05,29.93,14,4,14,0.08
2013-2-13,56.8,36.3,26.8,22.5,18.2,14.0,61,49,26,29.93,29.70,19,3,19,0.00
2013-2-14,41.4,36.8,33.3,29.7,24.6,18.1,73,61,49,29.91,29.67,28,7,28,0.00
2013-2-15,46.0,32.3,24.8,20.6,14.1,5.5,63,47,28,30.14,29.91,14,4,14,0.00
2013-2-16,33.8,23.3,15.6,16.6,8.1,-1.3,70,53,30,30.11,30.02,15,4,15,0.00
2013-2-17,49.1,24.8,11.8,13.9,5.6,-0.6,64,45,22,30.20,30.08,13,2,13,0.00
2013-2-18,55.0,39.1,25.3,39.8,21.2,6.0,78,49,35,30.11,29.49,22,6,22,0.08
2013-2-19,46.4,24.3,16.3,42.5,14.5,3.4,88,66,49,30.02,29.43,28,11,32,0.04
2013-2-20,28.2,22.5,16.5,11.7,9.1,5.9,74,56,43,30.29,30.02,16,6,16,0.00
2013-2-21,37.6,28.9,24.1,15.5,11.6,8.7,55,48,40,30.35,30.11,20,5,20,0.00
2013-2-22,37.2,31.2,24.1,32.2,20.9,9.4,86,66,53,30.11,29.82,19,7,20,0.00
2013-2-23,33.4,28.8,25.9,18.7,14.6,10.2,68,56,40,29.93,29.88,19,8,19,0.00
2013-2-24,63.1,33.1,24.8,24.0,16.3,12.8,71,52,21,30.14,29.91,15,5,15,0.08
2013-2-25,65.8,38.1,23.9,26.0,17.7,10.5,66,46,20,30.20,30.02,12,2,12,0.00
2013-2-26,38.7,36.4,33.4,29.5,22.9,16.5,73,58,42,30.02,29.46,21,7,21,0.39
2013-2-27,38.8,36.9,35.8,33.1,30.9,29.3,86,79,72,29.58,29.43,11,4,11,0.31
2013-2-28,44.8,38.7,36.3,33.0,26.7,22.6,84,62,44,29.96,29.58,13,5,13,0.04
2013-3-1,46.4,37.0,30.7,24.0,17.7,11.4,62,46,32,30.11,29.96,13,6,13,0.00
2013-3-2,50.2,34.0,28.0,17.2,11.9,7.9,50,40,26,30.11,30.05,12,4,12,0.00
2013-3-3,58.5,31.5,22.3,16.2,9.9,4.5,56,41,19,30.08,30.02,14,4,14,0.00
2013-3-4,47.7,32.7,21.0,16.4,11.5,7.7,60,43,27,30.14,30.02,10,3,10,0.00
2013-3-5,39.4,35.2,30.9,24.7,17.8,12.6,68,49,40,30.05,29.76,19,6,19,0.00
2013-3-6,51.1,38.7,30.7,22.8,20.5,17.3,65,49,30,30.23,29.82,18,5,18,0.08
2013-3-7,49.5,39.4,31.3,26.1,20.3,13.2,66,48,27,30.38,30.20,10,3,11,0.00
2013-3-8,66.7,37.9,24.4,23.8,17.2,12.2,65,46,17,30.47,30.38,10,2,10,0.00
2013-3-9,50.4,38.8,30.6,28.9,22.1,17.1,60,51,35,30.38,29.96,16,4,16,0.00
2013-3-10,63.0,50.6,39.7,38.3,32.7,27.0,67,51,36,29.96,29.70,13,5,14,0.04
2013-3-11,54.9,47.8,35.8,50.4,39.6,27.1,89,74,40,29.73,29.52,25,8,25,0.16
2013-3-12,42.1,34.1,32.2,30.0,24.6,15.4,81,69,39,29.91,29.73,22,9,22,0.00
2013-3-13,46.0,31.0,25.9,26.3,15.2,6.3,80,53,27,30.26,29.91,18,6,19,0.00
2013-3-14,57.6,34.1,23.2,20.2,12.4,6.7,56,42,22,30.29,30.11,15,5,16,0.00
2013-3-15,51.3,40.6,32.7,35.3,28.5,19.0,80,63,39,30.11,29.79,14,5,14,0.04
2013-3-16,43.0,38.3,30.4,34.6,25.8,15.3,75,61,44,30.05,29.67,14,5,14,0.00
2013-3-17,55.9,37.2,29.8,20.0,14.9,9.6,54,41,23,30.20,30.05,16,6,16,0.00
2013-3-18,39.9,34.8,30.2,33.0,24.5,13.4,84,66,49,30.08,29.55,21,6,21,0.04
2013-3-19,46.4,27.4,20.7,17.6,9.8,6.2,68,48,27,29.99,29.70,31,11,31,0.00
2013-3-20,29.3,25.0,20.5,10.1,6.2,1.6,58,44,36,29.99,29.93,20,6,20,0.00
2013-3-21,39.4,26.2,17.6,15.9,11.4,7.1,73,54,35,29.99,29.91,17,6,17,0.00
2013-3-22,58.8,35.7,24.6,18.7,13.2,9.2,57,41,19,30.05,29.96,16,4,16,0.00
2013-3-23,65.5,38.0,26.1,23.2,16.3,12.9,61,43,18,30.11,29.99,12,3,12,0.00
2013-3-24,44.4,36.4,30.7,20.7,17.9,14.9,56,47,35,29.99,29.61,23,7,23,0.00
2013-3-25,42.8,37.9,33.1,23.9,20.6,15.6,66,50,39,29.96,29.58,20,7,20,0.00
2013-3-26,46.0,38.6,35.4,24.6,21.6,16.6,60,50,35,30.17,29.96,18,5,18,0.00
2013-3-27,61.2,41.3,33.1,29.2,19.6,10.1,73,45,19,30.26,30.17,20,5,20,0.00
2013-3-28,68.4,43.4,29.8,22.7,16.9,12.2,54,36,17,30.29,30.26,17,3,17,0.00
2013-3-29,75.9,44.4,29.1,25.0,16.7,11.1,58,37,14,30.29,30.20,13,2,14,0.00
2013-3-30,59.7,43.2,27.3,26.3,18.8,12.4,57,39,24,30.23,29.91,18,3,18,0.00
2013-3-31,64.0,50.3,40.3,44.5,29.0,18.1,87,47,20,29.91,29.67,24,6,24,0.00
2013-4-1,40.3,37.5,34.9,25.5,21.3,14.7,60,52,43,29.88,29.79,15,6,15,0.00
2013-4-23,65.8,55.4,48.0,55.3,48.5,40.1,87,78,40,29.91,29.85,21,6,21,0.39
2013-4-24,62.4,44.0,39.7,40.5,27.9,15.4,78,56,21,30.14,29.82,18,5,18,0.16
2013-4-25,40.5,38.3,36.9,32.5,26.8,22.9,73,63,51,30.14,30.08,17,6,17,0.00
2013-5-1,91.9,82.0,68.7,50.6,44.3,39.6,52,29,18,30.17,30.14,15,4,15,0.28
2013-5-2,87.3,72.7,61.9,53.2,47.0,37.8,69,44,20,30.20,30.08,15,4,15,0.00
2013-5-3,82.9,70.7,59.9,51.8,44.8,33.2,67,43,21,30.08,29.96,20,5,20,0.00
2013-5-4,80.2,67.4,59.7,41.1,34.2,26.6,42,30,17,30.05,29.99,16,6,16,0.00
2013-5-5,82.2,66.5,52.7,39.0,34.2,27.8,54,32,17,30.05,29.96,16,4,16,0.00
2013-5-6,91.6,70.5,57.9,42.1,34.2,27.5,43,28,12,30.02,29.93,12,4,12,0.00
2013-5-7,85.1,69.2,56.8,46.1,41.6,36.8,65,39,20,30.05,29.96,15,2,15,0.00
2013-5-8,65.1,60.5,57.7,48.6,46.8,43.8,71,61,47,30.02,29.99,0,0,0,0.00
2013-6-3,80.1,69.9,56.1,39.1,35.2,30.0,51,29,20,30.11,30.02,11,4,11,2.56
2013-6-4,86.4,66.1,49.8,46.2,39.6,33.4,74,43,18,30.20,30.11,11,3,11,0.00
2013-6-5,87.3,70.1,58.5,42.6,37.7,31.5,51,32,18,30.14,29.93,13,4,13,0.00
2013-6-6,82.9,68.7,60.6,48.1,42.1,34.8,53,39,21,29.96,29.85,13,5,13,0.00
2013-6-7,82.4,67.1,56.5,47.4,44.4,38.4,69,47,23,29.93,29.88,14,4,14,0.00
2013-6-8,59.2,56.4,54.5,50.9,47.4,46.1,76,72,62,29.96,29.91,4,0,4,0.00
2013-10-7,59.2,58.8,58.8,43.6,43.6,43.5,57,57,57,29.93,29.93,10,3,12,0.00
2013-10-8,94.3,71.1,55.2,41.9,39.0,33.4,57,34,14,30.23,30.20,12,4,14,0.00
2013-10-9,98.2,61.5,46.0,49.6,37.6,26.5,75,48,10,30.29,30.17,11,2,12,0.00
2013-10-10,98.8,62.1,46.6,48.2,39.8,32.5,76,51,11,30.20,30.11,9,1,10,0.00
2013-10-11,98.1,62.9,46.2,50.9,40.1,30.2,76,50,13,30.14,30.02,9,2,10,0.00
2013-10-12,84.4,65.5,51.8,60.7,45.9,36.3,80,54,20,30.11,30.02,14,2,18,0.00
2013-10-13,86.7,60.9,46.8,59.8,41.6,27.8,83,56,16,30.38,30.11,13,2,13,0.00
2013-10-14,93.6,58.2,44.6,44.7,36.9,28.5,76,51,12,30.41,30.23,11,2,12,0.00
2013-10-15,65.7,57.5,46.8,62.7,48.7,36.5,90,72,58,30.23,29.85,13,4,15,0.00
2013-10-16,64.4,53.3,48.2,60.8,44.4,38.7,89,72,66,29.93,29.85,18,7,19,0.00
2013-10-17,54.7,51.0,46.4,47.2,44.2,40.0,85,77,61,29.93,29.79,16,6,20,0.00
2013-10-18,65.1,49.5,42.1,40.9,37.4,33.1,83,65,34,29.96,29.88,19,4,20,0.00
2013-10-19,60.1,47.5,43.5,42.8,34.1,19.9,87,63,24,29.93,29.79,19,6,24,0.00
2013-10-20,68.2,51.8,40.8,36.6,33.5,27.6,76,52,27,29.91,29.82,18,6,22,0.00
2013-10-21,57.2,50.9,42.1,45.5,34.8,19.5,76,55,30,29.93,29.82,20,7,21,0.00
2013-10-22,54.9,40.7,32.0,31.8,24.1,18.3,75,53,28,29.96,29.91,19,6,19,0.00
2013-10-23,53.6,40.6,35.1,33.5,27.9,16.7,78,62,31,29.99,29.85,15,4,15,0.00
2013-10-24,50.2,39.7,36.5,38.4,31.6,26.5,84,73,48,30.23,29.96,12,4,17,0.00
2013-10-25,64.6,42.6,36.9,35.7,27.0,15.8,85,58,21,30.35,30.11,19,5,21,0.00
2013-10-26,53.4,44.8,39.7,31.7,24.5,19.0,58,45,37,30.11,29.82,25,8,28,0.00
2013-10-27,67.1,46.1,35.8,32.1,25.8,18.6,74,49,20,30.05,29.99,15,4,19,0.00
2013-10-28,77.2,48.6,34.3,33.3,27.7,21.7,69,48,18,30.35,30.02,12,2,13,0.00
2013-10-29,61.9,46.9,36.3,33.8,30.2,26.8,70,54,31,30.38,30.20,11,2,11,0.00
2013-10-30,66.0,53.2,40.6,56.6,42.1,32.1,86,67,43,30.20,29.91,10,2,11,0.00
2013-10-31,66.6,63.0,55.2,64.2,59.7,50.2,92,89,83,29.91,29.23,20,8,26,0.00
2013-11-1,55.0,48.5,46.2,50.3,39.8,31.4,86,72,51,29.70,29.28,22,8,29,0.00
2013-11-2,61.9,48.4,44.6,44.6,39.3,28.7,87,72,34,30.08,29.70,14,4,14,0.00
2013-11-3,58.6,46.2,39.6,39.8,31.7,25.4,77,59,30,30.35,30.08,10,4,12,0.00
2013-11-4,55.0,45.9,38.7,36.4,30.0,26.2,71,55,35,30.38,30.20,15,6,19,0.00
2013-11-5,56.7,52.9,49.3,45.2,39.7,36.1,69,61,51,30.32,30.11,12,4,13,0.00
2013-11-6,57.6,53.2,43.2,55.0,44.9,35.0,91,75,46,30.11,29.82,22,7,26,0.00
2013-11-7,51.1,41.4,35.2,36.6,27.3,17.1,77,59,28,30.20,30.05,15,5,20,0.00
2013-11-8,60.3,42.6,34.7,32.3,26.6,19.5,84,56,25,30.29,30.11,14,4,14,0.00
2013-11-9,66.0,50.1,42.6,34.2,28.2,21.5,55,43,26,30.11,29.85,26,10,28,0.00
2013-11-10,66.2,44.2,37.4,27.8,23.1,18.0,60,44,23,30.29,29.99,20,6,21,0.00
2013-11-11,46.4,39.9,31.3,37.2,25.7,12.6,75,57,43,30.35,30.05,14,6,19,0.00
2013-11-12,45.9,31.7,25.0,19.7,14.3,8.0,61,49,28,30.58,30.35,13,5,18,0.00
2013-11-13,38.7,26.4,21.9,14.7,12.2,5.8,70,57,29,30.53,30.41,21,7,21,0.00
2013-11-18,39.9,38.0,36.1,25.1,21.2,17.7,56,50,45,30.17,29.85,17,7,24,0.00
2013-11-19,65.7,41.7,33.4,24.4,19.4,14.9,55,42,17,30.35,30.17,15,3,15,0.00
2013-11-20,61.0,39.4,29.8,27.2,20.9,16.5,63,49,24,30.35,30.14,11,4,14,0.00
2013-11-21,49.8,47.0,42.8,44.9,38.0,27.2,83,71,53,30.23,30.14,12,3,12,0.00
2013-11-22,56.3,43.5,30.4,46.2,32.1,18.1,89,66,32,30.41,30.14,15,4,16,0.00
2013-11-23,36.9,27.4,20.3,23.7,14.6,5.0,77,59,34,30.55,30.32,16,6,21,0.00
2013-11-24,46.4,24.0,18.7,12.7,6.5,-1.2,63,48,22,30.61,30.41,13,4,15,0.00
2013-11-25,31.3,25.9,18.5,24.3,10.6,-0.1,80,53,41,30.41,30.08,20,8,22,0.00
2013-11-26,35.4,31.8,28.2,25.0,20.5,8.9,74,63,43,30.08,29.93,14,6,15,0.00
2013-11-27,45.3,30.6,25.9,16.2,11.4,7.0,57,45,27,30.20,29.99,12,5,14,0.00
2013-11-28,33.4,28.2,23.9,16.8,10.2,5.3,69,47,39,30.41,30.20,15,4,15,0.00
2013-11-29,60.6,37.2,30.6,20.5,15.0,9.5,53,42,19,30.61,30.41,12,3,12,0.00
2013-11-30,61.3,39.1,31.3,24.3,19.0,13.7,55,45,24,30.47,30.08,16,5,20,0.00
2013-12-1,67.3,41.1,30.0,32.4,22.5,17.3,62,49,22,30.08,29.99,11,2,12,0.00
2013-12-2,55.2,37.0,28.6,30.6,22.8,18.6,70,58,28,29.99,29.85,10,2,11,0.00
2013-12-3,48.6,42.1,35.8,44.0,35.0,23.8,84,76,60,29.85,29.76,10,4,12,0.00
2013-12-4,60.8,52.4,44.8,56.0,48.0,39.9,89,85,79,29.82,29.58,16,4,20,0.00
2013-12-5,60.1,38.4,29.5,54.6,24.6,12.9,82,58,44,30.17,29.61,24,8,24,0.00
2013-12-6,30.6,28.7,25.0,14.6,11.1,6.0,53,47,43,30.41,30.14,12,5,13,0.00
2013-12-7,31.6,23.3,18.0,11.7,5.8,1.5,60,47,33,30.58,30.41,12,4,13,0.00
2013-12-8,30.6,24.8,17.6,22.1,11.0,3.4,74,56,41,30.53,29.93,15,4,15,0.00
2013-12-9,29.7,24.1,16.0,22.6,13.0,1.1,78,63,46,30.14,29.88,26,10,26,0.00
2013-12-10,27.1,15.6,4.5,6.4,0.2,-8.3,55,50,40,30.23,29.96,23,9,30,0.00
2013-12-11,38.7,19.8,13.6,14.3,5.6,-1.9,72,55,30,30.44,30.23,15,7,21,0.00
2013-12-12,30.4,13.2,0.3,4.5,-3.5,-13.9,59,47,31,30.47,30.20,20,8,23,0.00
2013-12-13,49.5,26.8,14.4,17.7,9.3,1.6,60,48,28,30.20,30.11,12,5,13,0.00
2013-12-14,31.3,27.4,22.1,20.6,15.4,11.0,70,60,52,30.14,29.85,12,6,15,0.00
2013-12-15,25.9,19.5,12.4,19.7,10.2,1.9,78,66,60,30.05,29.85,19,8,23,0.00
2013-12-16,34.9,18.5,6.3,10.0,3.8,-4.0,62,53,32,30.14,29.99,10,3,11,0.00
2013-12-17,28.6,24.1,19.4,22.3,16.2,8.1,80,72,58,29.99,29.91,17,7,19,0.00
2013-12-18,50.0,27.9,21.4,15.6,10.8,4.9,68,50,21,30.14,29.88,15,7,15,0.00
2013-12-19,44.6,38.7,28.8,32.0,26.7,11.1,75,62,47,29.96,29.85,12,4,13,0.00
2013-12-20,46.8,42.3,37.8,43.3,36.8,31.3,90,81,70,29.85,29.70,8,1,9,0.00
2013-12-21,40.5,38.5,36.3,37.8,33.1,29.5,91,81,74,29.82,29.58,14,4,16,0.00
2013-12-22,37.6,36.2,33.4,33.5,30.3,27.5,85,79,76,29.99,29.49,20,6,22,0.00
2013-12-23,33.4,25.6,11.3,27.6,14.1,-2.1,79,62,48,30.35,29.99,19,8,19,0.00
2013-12-24,42.3,15.3,5.4,12.0,-0.5,-7.7,57,50,26,30.50,30.35,17,6,18,0.00
2013-12-25,27.5,23.3,18.3,22.5,12.1,5.4,81,62,53,30.41,30.05,16,7,16,0.00
2013-12-26,33.1,27.6,23.2,24.1,15.3,6.4,83,61,37,30.26,30.02,20,7,26,0.00
2013-12-27,56.3,37.8,31.6,27.1,23.0,20.1,68,56,27,30.29,30.08,16,6,20,0.00
2013-12-28,63.1,41.6,34.9,28.4,25.9,22.7,72,55,25,30.11,29.88,18,8,19,0.00
2013-12-29,43.2,34.1,23.9,29.9,21.3,10.3,76,59,49,30.05,29.73,22,7,23,0.00
2013-12-30,28.0,22.8,14.4,12.5,6.0,-0.8,63,48,35,30.23,30.05,12,5,14,0.00
2013-12-31,22.5,15.9,13.5,10.0,3.7,-2.5,72,59,37,30.29,30.08,20,7,21,0.00
2014-1-1,29.3,21.7,16.5,9.8,6.7,3.3,67,52,41,30.29,30.14,12,6,15,0.00
2014-1-2,33.8,18.4,3.2,7.4,0.5,-17.2,60,46,30,30.29,30.05,17,6,20,0.00